Location: Namasale
(1.5000°N, 32.6167°E)
Time: 23:12:33
(UTC+00:00)

Vanguard 3 - Pass Details

Date: 02 December 2021
Orbit: 508 x 3260 km, 33.3° (Epoch: 27 January)

Event Time Altitude Azimuth Distance (km) Brightness Sun altitude
Exits shadow 23:18:52 28° 45° (NE) 4,830 10.9 -58.2°
Drops below altitude 10° 23:25:37 10° 49° (NE) 6,111 11.6 -56.9°
Sets 23:30:09 0° 51° (NE) 6,994 12.0 -56.1°
